Buffalo, NY

9:04 AM EST on December 15, 2019 (GMT -0500)
Buffalo Niagara International

Weather History for KBUF - August, 2019

Change the Weather History Date:

Friday, August 16, 2019

  Actual Average Record
Temperature  
Mean Temperature 72 °F 70 °F  
Max Temperature 82 °F 79 °F 92 °F (1935)
Min Temperature 61 °F 61 °F 44 °F (1880)
Degree Days  
Heating Degree Days 0 1  
Month to date heating degree days 0 1  
Since 1 June heating degree days 62 74  
Since 1 July heating degree days 0 10  
Cooling Degree Days 7 5  
Month to date cooling degree days 106 94  
Year to date cooling degree days 474 420  
Since 1 June cooling degree days 466 394  
Growing Degree Days 22 (Base 50)    
Moisture  
Dew Point 62 °F    
Average Humidity 70    
Maximum Humidity 84    
Minimum Humidity 55    
Precipitation  
Precipitation 0.00 in 0.10 in 2.71 in (1879)
Month to date precipitation 1.57 1.72  
Year to date precipitation 26.32 23.62  
Snow  
Snow 0.00 in 0.00 in 0.00 in ()
Month to date snowfall 0.0 0.0  
Since 1 June snowfall 0.0 0.0  
Since 1 July snowfall 0.0 0.0  
Snow Depth 0.00 in    
Sea Level Pressure  
Sea Level Pressure 29.95 in    
Wind  
Wind Speed 6 mph (WSW)    
Max Wind Speed 16 mph    
Max Gust Speed 20 mph    
Visibility 10 miles    
Events Thunderstorm    
T = Trace of Precipitation, MM = Missing Value Source: NWS Daily Summary

Daily Weather History Graph

Daily Weather History Graph

Search for Another Location

Airport or City:

Astronomy

Aug. 16, 2019 Rise Set
Actual Time 6:21 AM EDT 8:15 PM EDT
Civil Twilight 5:51 AM EDT 8:46 PM EDT
Nautical Twilight 5:13 AM EDT 9:23 PM EDT
Astronomical Twilight 4:33 AM EDT 10:03 PM EDT
Moon 9:13 PM EDT (8/16) 7:11 AM EDT (8/16)
Length of Visible Light 14h 55m
Length of Day
13h 54m
Full, 99% of the Moon is Illuminated
Aug 16
Full
Aug 23
Last Quarter
Aug 30
New
Sep 5
First Quarter
Sep 14
Full

Hourly Weather History & Observations

Time (EDT) Temp. Heat Index Dew Point Humidity Pressure Visibility Wind Dir Wind Speed Gust Speed Precip Events Conditions
12:54 AM 64.9 °F - 57.0 °F 75% 29.95 in 10.0 mi ENE 8.1 mph - N/A   Mostly Cloudy
1:54 AM 66.0 °F - 55.9 °F 70% 29.94 in 10.0 mi East 6.9 mph - N/A   Scattered Clouds
2:54 AM 64.9 °F - 57.0 °F 75% 29.93 in 10.0 mi East 4.6 mph - N/A   Partly Cloudy
3:54 AM 64.0 °F - 57.0 °F 78% 29.94 in 10.0 mi ESE 3.5 mph - N/A   Scattered Clouds
4:54 AM 63.0 °F - 57.9 °F 84% 29.94 in 10.0 mi North 3.5 mph - N/A   Mostly Cloudy
5:54 AM 62.1 °F - 57.0 °F 84% 29.95 in 10.0 mi NNE 3.5 mph - N/A   Scattered Clouds
6:54 AM 62.1 °F - 57.9 °F 86% 29.95 in 10.0 mi NNE 3.5 mph - N/A   Scattered Clouds
7:54 AM 66.0 °F - 60.1 °F 81% 29.96 in 10.0 mi Calm Calm - N/A   Scattered Clouds
8:54 AM 69.1 °F - 62.1 °F 78% 29.96 in 10.0 mi Calm Calm - N/A   Scattered Clouds
9:54 AM 72.0 °F - 63.0 °F 73% 29.96 in 10.0 mi Calm Calm - N/A   Mostly Cloudy
10:54 AM 75.0 °F - 64.9 °F 71% 29.97 in 10.0 mi East 3.5 mph - N/A   Mostly Cloudy
11:54 AM 75.9 °F - 64.0 °F 67% 29.97 in 10.0 mi Variable 4.6 mph - N/A   Mostly Cloudy
12:54 PM 78.1 °F - 64.0 °F 62% 29.96 in 10.0 mi NNE 4.6 mph - N/A   Mostly Cloudy
1:54 PM 78.1 °F - 64.0 °F 62% 29.96 in 10.0 mi NE 4.6 mph - N/A   Mostly Cloudy
2:54 PM 82.0 °F 83.8 °F 64.9 °F 56% 29.94 in 10.0 mi NNE 6.9 mph - N/A   Mostly Cloudy
3:54 PM 80.1 °F 81.7 °F 64.0 °F 58% 29.92 in 10.0 mi Variable 4.6 mph - N/A   Mostly Cloudy
4:29 PM 80.1 °F 81.5 °F 63.0 °F 56% 29.93 in 10.0 mi WSW 11.5 mph - N/A Thunderstorm Thunderstorm
4:52 PM 78.8 °F - 62.6 °F 57% 29.93 in 10.0 mi WSW 10.4 mph - N/A Thunderstorm Thunderstorm
4:54 PM 79.0 °F - 63.0 °F 58% 29.92 in 10.0 mi WSW 11.5 mph - N/A Thunderstorm Thunderstorm
5:17 PM 80.1 °F 81.7 °F 64.0 °F 58% 29.93 in 10.0 mi WSW 13.8 mph - N/A   Mostly Cloudy
5:54 PM 78.1 °F - 64.9 °F 64% 29.94 in 10.0 mi WSW 12.7 mph - N/A   Mostly Cloudy
6:54 PM 75.9 °F - 64.9 °F 69% 29.94 in 10.0 mi NW 4.6 mph - N/A   Mostly Cloudy
7:54 PM 73.9 °F - 66.0 °F 76% 29.94 in 10.0 mi SSW 9.2 mph - N/A   Scattered Clouds
8:54 PM 73.0 °F - 66.0 °F 79% 29.94 in 10.0 mi SW 9.2 mph - N/A   Scattered Clouds
9:54 PM 73.0 °F - 66.0 °F 79% 29.95 in 10.0 mi SW 9.2 mph - N/A   Mostly Cloudy
10:26 PM 72.0 °F - 64.9 °F 78% 29.96 in 10.0 mi SW 11.5 mph - N/A   Scattered Clouds
10:54 PM 72.0 °F - 64.9 °F 78% 29.95 in 10.0 mi SW 8.1 mph - N/A   Partly Cloudy
11:54 PM 69.1 °F - 64.0 °F 84% 29.96 in 10.0 mi South 6.9 mph - N/A   Partly Cloudy